Location: Gro�wechsungen
(51.4926°N, 10.6901°E)
Time: 13:35:58
(UTC+00:00)

Cosmos 2082 Rocket - Pass Details

Date: 18 January 2021
Orbit: 832 x 854 km, 71.0° (Epoch: 04 March)

Event Time Altitude Azimuth Distance (km) Brightness Sun altitude
Rises 18:16:47 0° 330° (NNW) 3,437 5.7 -23.3°
Reaches altitude 10° 18:19:41 10° 343° (NNW) 2,499 4.8 -23.8°
Enters shadow 18:23:04 23° 17° (NNE) 1,731 3.6 -24.3°
